TimeMDT,TemperatureF,Dew PointF,Humidity,Sea Level PressureIn,VisibilityMPH,Wind Direction,Wind SpeedMPH,Gust SpeedMPH,PrecipitationIn,Events,Conditions,WindDirDegrees,DateUTC
12:48 AM,33.1,30.9,92,30.09,-9999.0,Calm,Calm,-,N/A,,Unknown,0,2013-04-19 06:48:00
1:48 AM,34.0,32.0,92,30.09,-9999.0,WNW,5.8,-,N/A,,Unknown,300,2013-04-19 07:48:00
2:48 AM,34.0,30.9,89,30.06,-9999.0,West,5.8,-,N/A,,Unknown,280,2013-04-19 08:48:00
3:48 AM,35.1,30.9,85,30.06,-9999.0,North,10.4,-,N/A,,Unknown,360,2013-04-19 09:48:00
4:48 AM,34.0,30.0,85,30.04,-9999.0,NNE,8.1,-,N/A,,Unknown,20,2013-04-19 10:48:00
5:48 AM,34.0,28.0,79,30.04,-9999.0,NNE,5.8,-,N/A,,Unknown,20,2013-04-19 11:48:00
6:48 AM,33.1,27.0,78,30.05,-9999.0,Calm,Calm,-,N/A,,Unknown,0,2013-04-19 12:48:00
7:48 AM,34.0,28.0,79,30.05,-9999.0,NE,4.6,-,N/A,,Unknown,40,2013-04-19 13:48:00
8:48 AM,35.1,28.0,76,30.06,-9999.0,NE,4.6,-,N/A,,Unknown,40,2013-04-19 14:48:00
9:48 AM,36.0,28.0,73,30.06,-9999.0,East,5.8,-,N/A,,Unknown,80,2013-04-19 15:48:00
10:48 AM,36.0,28.0,73,30.05,-9999.0,ESE,3.5,-,N/A,,Unknown,120,2013-04-19 16:48:00
11:48 AM,37.0,28.9,73,30.04,-9999.0,SSE,9.2,-,N/A,,Unknown,160,2013-04-19 17:48:00
12:48 PM,39.0,30.9,73,30.01,-9999.0,SE,9.2,-,N/A,,Unknown,130,2013-04-19 18:48:00
1:48 PM,39.0,34.0,82,29.99,-9999.0,SSE,11.5,-,N/A,,Unknown,160,2013-04-19 19:48:00
2:48 PM,39.0,34.0,82,29.98,-9999.0,SE,6.9,-,N/A,,Unknown,140,2013-04-19 20:48:00
3:48 PM,41.0,36.0,82,29.95,-9999.0,SE,8.1,-,0.01,,Unknown,140,2013-04-19 21:48:00
4:48 PM,42.1,36.0,79,29.93,-9999.0,East,8.1,-,N/A,,Unknown,100,2013-04-19 22:48:00
5:48 PM,42.1,36.0,79,29.91,-9999.0,ESE,11.5,-,N/A,,Unknown,110,2013-04-19 23:48:00
6:48 PM,41.0,36.0,82,29.91,-9999.0,East,12.7,-,N/A,,Unknown,100,2013-04-20 00:48:00
7:48 PM,39.9,35.1,83,29.90,-9999.0,ESE,9.2,-,N/A,,Unknown,110,2013-04-20 01:48:00
8:48 PM,39.0,34.0,82,29.90,-9999.0,ESE,10.4,-,N/A,,Unknown,110,2013-04-20 02:48:00
9:48 PM,39.0,34.0,82,29.88,-9999.0,East,11.5,-,N/A,,Unknown,100,2013-04-20 03:48:00
10:48 PM,37.9,34.0,86,29.88,-9999.0,ESE,8.1,-,N/A,,Unknown,110,2013-04-20 04:48:00
11:48 PM,37.9,34.0,86,29.86,-9999.0,East,8.1,-,N/A,,Unknown,90,2013-04-20 05:48:00